TimeCDT,TemperatureF,Dew PointF,Humidity,Sea Level PressureIn,VisibilityMPH,Wind Direction,Wind SpeedMPH,Gust SpeedMPH,PrecipitationIn,Events,Conditions,WindDirDegrees,DateUTC
12:53 AM,84.9,62.1,46,30.00,10.0,ESE,6.9,-,N/A,,Scattered Clouds,120,2013-09-16 05:53:00
1:53 AM,84.9,62.1,46,30.01,10.0,SE,8.1,-,N/A,,Mostly Cloudy,130,2013-09-16 06:53:00
2:53 AM,82.0,62.1,51,30.00,10.0,SE,5.8,-,N/A,,Scattered Clouds,140,2013-09-16 07:53:00
3:53 AM,81.0,63.0,54,30.00,10.0,SE,5.8,-,N/A,,Scattered Clouds,130,2013-09-16 08:53:00
4:53 AM,80.1,63.0,56,30.00,10.0,SE,6.9,-,N/A,,Scattered Clouds,140,2013-09-16 09:53:00
5:53 AM,81.0,64.9,58,30.01,10.0,South,4.6,-,N/A,,Mostly Cloudy,170,2013-09-16 10:53:00
6:53 AM,81.0,66.0,60,30.03,10.0,SSE,5.8,-,N/A,,Mostly Cloudy,150,2013-09-16 11:53:00
7:53 AM,81.0,66.9,62,30.05,10.0,South,5.8,-,N/A,,Scattered Clouds,170,2013-09-16 12:53:00
8:53 AM,82.9,66.9,58,30.06,10.0,South,4.6,-,N/A,,Scattered Clouds,180,2013-09-16 13:53:00
9:53 AM,86.0,69.1,57,30.07,10.0,SSW,3.5,-,N/A,,Partly Cloudy,200,2013-09-16 14:53:00
10:53 AM,89.1,68.0,50,30.07,10.0,Calm,Calm,-,N/A,,Partly Cloudy,0,2013-09-16 15:53:00
11:53 AM,91.9,66.9,44,30.07,10.0,Calm,Calm,-,N/A,,Scattered Clouds,0,2013-09-16 16:53:00
12:53 PM,93.0,66.0,41,30.05,10.0,Variable,4.6,-,N/A,,Mostly Cloudy,0,2013-09-16 17:53:00
1:53 PM,93.9,63.0,36,30.02,10.0,SSE,4.6,-,N/A,,Mostly Cloudy,150,2013-09-16 18:53:00
2:53 PM,95.0,60.1,31,30.00,10.0,Variable,5.8,-,N/A,,Mostly Cloudy,0,2013-09-16 19:53:00
3:53 PM,97.0,61.0,30,29.97,10.0,Variable,3.5,-,N/A,,Mostly Cloudy,0,2013-09-16 20:53:00
4:53 PM,97.0,59.0,28,29.94,10.0,South,8.1,-,N/A,,Scattered Clouds,170,2013-09-16 21:53:00
5:53 PM,97.0,59.0,28,29.94,10.0,ESE,9.2,-,N/A,,Scattered Clouds,120,2013-09-16 22:53:00
6:53 PM,93.9,57.9,30,29.94,10.0,SE,8.1,-,N/A,,Mostly Cloudy,130,2013-09-16 23:53:00
7:53 PM,93.0,60.1,33,29.96,10.0,ESE,9.2,-,N/A,,Mostly Cloudy,120,2013-09-17 00:53:00
8:53 PM,91.9,61.0,35,29.98,10.0,ESE,8.1,-,N/A,,Mostly Cloudy,120,2013-09-17 01:53:00
9:53 PM,91.0,62.1,38,30.00,10.0,SE,8.1,-,N/A,,Overcast,140,2013-09-17 02:53:00
10:53 PM,90.0,63.0,40,30.01,10.0,ESE,5.8,-,N/A,,Overcast,110,2013-09-17 03:53:00
11:53 PM,89.1,63.0,42,30.01,10.0,ESE,6.9,-,N/A,,Mostly Cloudy,120,2013-09-17 04:53:00